Terminal Aerodrome Forecast
Issued by NWS

Home | Current Version | Previous Version | Text Only | Print | Product List | Glossary On
Versions: 1 2 3 4 5 6 7 8 9 10 11 12 13 14 15 16 17 18 19 20 21 22 23 24 25 26 27 28 29 30 31 32 33 34 35 36 37 38 39
096
FTUS45 KBOI 102332
TAFJER
TAF
KJER 102332Z 1100/1124 05011KT P6SM SCT250
     FM110600 05013KT P6SM VCFG SCT200
     FM111500 04017KT P6SM SCT150=

USA.gov is the U.S. government's official web portal to all federal, state and local government web resources and services.